Insider Trading History of Horizon Kinetics Asset Management Llc


The following table details the trading activities (stock purchases, stock sales, and stock option exercises) reported to the Securities and Exchange Commission (SEC) by insider Horizon Kinetics Asset Management Llc since year 2005. The trader's CIK number is 1056823. At the time of the last reporting, Horizon Kinetics Asset Management Llc was the 10% Owner of Texas Pacific Land Trust . (stock ticker symbol TPL). See this page for all insider trading activities at Texas Pacific Land Trust .


Stock purchases, sales, and option exercises reported by insider Horizon Kinetics Asset Management Llc since 2005.
  Trade Date   Symbol Company Name (Issuer) Trade Type     Shares       Price ($)   Value ($)
2019-07-18 TPL Texas Pacific Land Trust Buy 49 759.50 37,215
2019-07-17 TPL Texas Pacific Land Trust Buy 157 769.49 120,809
2019-07-16 TPL Texas Pacific Land Trust Buy 49 779.61 38,200
2019-07-15 TPL Texas Pacific Land Trust Buy 49 795.00 38,955
2019-07-12 TPL Texas Pacific Land Trust Buy 49 798.15 39,109
2019-07-11 TPL Texas Pacific Land Trust Buy 49 808.89 39,635
2019-07-10 TPL Texas Pacific Land Trust Buy 50 797.58 39,879
2019-07-09 TPL Texas Pacific Land Trust Buy 50 789.73 39,486
2019-07-08 TPL Texas Pacific Land Trust Buy 50 810.20 40,510
2019-07-05 TPL Texas Pacific Land Trust Buy 50 798.67 39,933
2019-07-03 TPL Texas Pacific Land Trust Buy 50 793.74 39,687
2019-07-02 TPL Texas Pacific Land Trust Buy 50 811.04 40,552
2019-07-01 TPL Texas Pacific Land Trust Buy 50 799.99 39,999
2019-06-28 TPL Texas Pacific Land Trust Buy 50 795.24 39,762
2019-06-27 TPL Texas Pacific Land Trust Buy 50 785.98 39,299
2019-06-26 TPL Texas Pacific Land Trust Buy 50 817.18 40,859
2019-06-25 TPL Texas Pacific Land Trust Buy 50 787.20 39,360
2019-06-24 TPL Texas Pacific Land Trust Buy 50 782.12 39,106
2019-06-21 TPL Texas Pacific Land Trust Buy 50 791.07 39,553
2019-06-20 TPL Texas Pacific Land Trust Buy 50 796.72 39,836
2019-06-19 TPL Texas Pacific Land Trust Buy 50 755.88 37,794
2019-06-18 TPL Texas Pacific Land Trust Buy 50 735.09 36,754
2019-06-17 TPL Texas Pacific Land Trust Buy 50 718.96 35,948
2019-06-14 TPL Texas Pacific Land Trust Buy 50 739.99 36,999
2019-06-13 TPL Texas Pacific Land Trust Buy 50 726.13 36,306
2019-06-12 TPL Texas Pacific Land Trust Buy 50 744.22 37,211
2019-06-11 TPL Texas Pacific Land Trust Buy 50 771.11 38,555
2019-06-10 TPL Texas Pacific Land Trust Buy 50 764.77 38,238
2019-06-07 TPL Texas Pacific Land Trust Buy 50 749.91 37,495
2019-06-06 TPL Texas Pacific Land Trust Buy 175 740.80 129,639
2019-06-05 TPL Texas Pacific Land Trust Buy 50 730.07 36,503
2019-06-04 TPL Texas Pacific Land Trust Buy 50 732.78 36,639
2019-06-03 TPL Texas Pacific Land Trust Buy 50 738.78 36,939
2019-05-31 TPL Texas Pacific Land Trust Buy 50 752.07 37,603
2019-05-30 TPL Texas Pacific Land Trust Buy 50 799.00 39,950
2019-05-29 TPL Texas Pacific Land Trust Buy 50 813.21 40,660
2019-05-28 TPL Texas Pacific Land Trust Buy 50 790.32 39,516
2019-05-24 TPL Texas Pacific Land Trust Buy 50 790.09 39,504
2019-05-23 TPL Texas Pacific Land Trust Buy 36 792.09 28,515
2019-05-22 TPL Texas Pacific Land Trust Buy 36 831.23 29,924
2019-05-21 TPL Texas Pacific Land Trust Buy 36 849.48 30,581
2019-05-20 TPL Texas Pacific Land Trust Buy 36 860.09 30,963
2019-05-17 TPL Texas Pacific Land Trust Buy 36 845.42 30,435
2019-05-16 TPL Texas Pacific Land Trust Buy 36 842.57 30,332
2019-05-15 TPL Texas Pacific Land Trust Buy 36 837.84 30,162
2019-05-14 TPL Texas Pacific Land Trust Buy 36 805.73 29,006
2019-05-13 TPL Texas Pacific Land Trust Buy 36 787.20 28,339
2019-05-10 TPL Texas Pacific Land Trust Buy 36 780.78 28,108
2019-05-09 TPL Texas Pacific Land Trust Buy 36 779.99 28,079
2019-05-08 TPL Texas Pacific Land Trust Buy 36 799.98 28,799
2019-05-07 TPL Texas Pacific Land Trust Buy 36 781.21 28,123
2019-05-06 TPL Texas Pacific Land Trust Buy 36 807.23 29,060

Insider trading activities including stock purchases, stock sales, and option exercises listed in the above table cannot be completely guaranteed as to their accuracy. For more information regarding the trades made by Horizon Kinetics Asset Management Llc (10% Owner of Texas Pacific Land Trust at the time of this reporting) see the Securities and Exchange Commission (SEC) website.